Find WHDW 22-06

NORAD ID: 69577 Int'l Des: 2026-137 Owner: ZXW Country: CN Constellation: xingwang operational
LEOCIRCULAR

Current View

Loading 3D Globe...

About WHDW 22-06

WHDW 22-06 (NORAD 69577) is a xingwang constellation satellite launched Jun 17, 2026 by ZXW of CN. It operates in LEO, CIRCULAR orbit with a mass of 800.00 kg.

About WHDW 22-06

Description loading...

Upcoming Passes

Passes for default location (London). Set your location on the main map for personalized predictions.

Altitude History

Loading altitude history...

Two-Line Element Set

1 69577U 26137F 26169.16354938 -.00000116 00000-0 23542-4 0 9995
2 69577 50.0023 251.5295 0010644 232.3220 127.6715 13.92579825 161
Epoch: Jun 18, 2026 • Age: 14 hours

Current Status

Altitude 925.7 km
Velocity 7.39 km/s
Sub-Earth Point 40.12°N, 156.94°W
Launch Date Jun 17, 2026
Age 1 day
Type other

Technical Details

Classification Payload
Mass 800.00 kg
Dry Mass 800.00 kg
Total Mass 800.00 kg
Length 3.00 m
Diameter 1.00 m
Span 10.00 m
Shape Box + 2 Pan
Manufacturer YINNT
Bus Type Xingwang Y
Phase Status In Orbit
Owner/State ZXW/CN

Most Searched